Location: �perlecques
(50.8057°N, 2.1521°E)
Time: 10:37:15
(UTC+00:00)

Vanguard 1 Rocket - Pass Details

Date: 09 August 2021
Orbit: 650 x 4226 km, 34.3° (Epoch: 20 September)

Event Time Altitude Azimuth Distance (km) Brightness Sun altitude
Rises 11:47:46 0° 267° (W) 7,920 12.2 54.8°
Reaches altitude 10° 11:54:28 10° 260° (W) 6,418 11.9 54.9°
Maximum altitude 12:09:38 33° 206° (SSW) 3,344 11.7 54.8°
Drops below altitude 10° 12:18:33 10° 146° (SE) 3,750 11.1 54.6°
Sets 12:21:19 0° 136° (SE) 4,366 11.2 54.5°
